SCP
0 0 0 0 0 0 0 0 0 0 0 0 0 -0 -0 0 0 0 0 0 0 -0 -0 0 0 0 0 0 0 0 0 0 0 0 0 0 0 0 0 0 0 0 0
0 0 0 0 0 0 0 0 0 0 -0 0 -0 -0 -0 -0 0 -0 0 -0 -0 0 0 0 0 0 -0 0 0 -0 0 0 0 0 0 0 0 -0 0 0 0 0 0
-0 0 0 0 0 0 -0 -0 0 -0 0 0 0 -0 -0 -0 0 0 -0 -0 -0 0 0 0 0 -0 -0 0 -0 -0 0 0 0 -0 0 0 0 -0 0 0 0 0 0
-0 0 -0 0 0 0 -0 -0 0 0 0 0 0 0 -0 0 -0 0 0 0 -0 0 0 0 0 0 -0 -0 -0 -0 0 0 0 0 0 0 0 0 0 0 -0 0 -0
-0 -0 -0 0 0 -0 -0 0 -0 0 0 0 0 -0 0 -0 -0 -0 0 0 0 0 0 0 0 0 -0 -0 0 0 0 0 0 0 0 0 -0 0 -0 0 0 0 0
-0 -0 -0 0 -0 -0 -0 -0 -0 -0 -0 -0 0 0 -0 -0 -0 -0 0 0 0 0 0 0 0 -0 -0 0 0 0 0 0 0 0 -0 -0 0 0 0 0 -0 -0 -0
-0 -0 -0 -0 -0 -0 -0 -0 0 -0 0 -0 -0 -0 -0 -0 0 -0 0 0 0 0 0 0 0 0 0 0 0 0 0 0 0 0 0 -0 -0 -0 -0 -0 -0 0 -0
-0 -0 -0 -0 -0 -0 -0 -0 -0 -0 -0 0 0 0 0 0 0 0 0 0 0 0 0 0 0 0 0 0 0 0 0 0 0 0 0 -0 -0 -0 0 -0 -0 -0 -0
-0 -0 -0 -0 -0 -0 -0 -0 -0 -0 -0 0 0 0 0 0 0 0 -0 0 0 0 0 0 0 0 0 0 0 0 0 0 0 0 -0 -0 -0 -0 -0 -0 -0 0 -0
-0 -0 -0 -0 -0 0 0 0 0 0 -0 0 0 0 0 0 0 0 0 0 0 0 0 0 0 0 0 0 -0 0 0 -0 -0 -0 -0 -0 -0 -0 0 -0 -0 0 0
-0 -0 -0 -0 0 0 0 0 0 0 0 0 0 0 0 0 0 0 0 -0 0 0 0 0 0 0 0 0 0 0 0 -0 -0 -0 -0 -0 -0 -0 -0 -0 -0 0 -0
-0 -0 -0 -0 -0 0 0 0 0 0 0 0 0 0 0 0 0 0 -0 -0 -0 -0 0 0 0 -0 -0 0 0 -0 -0 0 -0 -0 -0 -0 -0 -0 -0 -0 -0 -0 0
-0 -0 -0 -0 -0 -0 0 0 0 0 0 0 0 0 -0 0 0 0 -0 0 -0 -0 -0 0 0 -0 -0 -0 -0 -0 -0 -0 -0 -0 -0 -0 0 0 -0 -0 -0 -0 0
-0 -0 -0 -0 -0 -0 0 0 0 0 0 0 0 0 0 -0 -0 0 0 0 0 -0 -0 0 0 0 0 -0 -0 -0 -0 -0 0 0 0 0 0 0 -0 0 0 0 0
-0 -0 -0 -0 0 0 0 0 0 0 0 0 0 0 0 0 0 0 0 0 0 0 0 0 0 0 -0 -0 -0 -0 -0 -0 0 0 0 0 0 -0 -0 0 0 0 0
-0 -0 -0 -0 0 0 0 0 0 0 -0 0 0 0 0 0 -0 0 0 -0 0 -0 -0 0 0 -0 -0 -0 0 0 0 0 0 0 -0 -0 -0 -0 -0 0 0 0 0
-0 -0 -0 0 -0 0 0 0 0 0 0 0 0 -0 -0 -0 -0 -0 -0 -0 -0 0 -0 -0 -0 -0 -0 0 -0 -0 -0 -0 0 -0 -0 -0 -0 -0 0 0 0 0 0
-0 -0 -0 -0 0 0 0 0 0 0 0 0 0 0 -0 -0 -0 -0 -0 -0 0 -0 0 0 -0 0 0 -0 -0 -0 -0 -0 0 0 0 -0 -0 0 0 0 0 0 0
-0 -0 -0 -0 0 0 0 0 0 0 0 0 -0 -0 -0 -0 -0 -0 -0 -0 -0 -0 0 0 0 -0 -0 0 -0 -0 -0 -0 -0 0 0 0 0 0 0 0 0 0 0
-0 -0 -0 0 -0 0 0 0 0 0 0 0 0 0 0 0 0 0 -0 -0 -0 -0 -0 0 0 0 -0 -0 -0 -0 0 0 0 0 0 0 0 0 0 0 0 0 0
0 0 0 -0 0 0 0 0 0 0 0 0 0 0 -0 0 0 0 0 -0 -0 -0 -0 -0 0 0 -0 0 0 0 0 0 0 0 0 0 0 0 0 0 0 0 0
0 0 0 0 0 0 0 0 0 0 0 0 0 0 0 0 0 0 0 0 0 0 0 -0 0 0 -0 -0 0 0 0 0 0 0 0 0 0 0 0 0 0 0 0
0 0 0 0 0 -0 0 0 0 0 0 0 0 0 0 0 0 0 0 0 0 0 0 0 -0 0 0 0 0 0 0 0 0 0 0 0 0 0 0 0 0 0 0
1 0 0 0 0 0 0 0 0 0 0 0 0 0 0 0 0 0 0 0 0 0 0 0 0 0 0 0 0 0 0 0 0 0 0 0 0 0 0 0 0 0 0
1 1 1 0 0 0 0 0 0 0 0 0 0 0 0 0 0 0 0 0 0 0 0 0 0 0 0 0 0 0 0 0 0 0 0 0 0 0 0 0 0 0 0
1 1 1 1 1 0 0 0 0 0 0 0 0 0 0 0 0 0 0 0 0 0 0 0 0 0 0 0 0 0 0 0 0 0 0 0 0 0 0 0 0 0 0
Wind_Speed_500mb
32 27 22 14 15 8 11 14 14 17 11 11 4 2 4 6 13 13 7 9 8 8 11 11 11 8 11 10 16 25 34 38 54 49 51 67 75 82 88 93 92 82 67
30 25 16 17 13 14 15 19 12 14 14 9 3 2 5 8 18 15 12 9 7 6 7 8 9 12 17 14 25 35 39 36 60 75 66 82 87 92 94 90 80 66 62
32 15 11 15 15 9 19 17 17 14 13 9 6 7 7 12 12 8 7 11 10 11 13 14 13 20 29 33 31 37 41 58 66 79 76 78 79 75 78 72 68 64 62
30 15 24 11 9 10 16 17 19 14 12 14 5 5 2 4 12 16 9 6 6 4 3 11 19 20 30 39 29 37 59 85 78 81 88 75 60 76 63 70 66 58 56
27 28 13 15 11 19 19 18 16 15 13 12 11 8 9 5 3 8 9 5 9 6 10 17 21 26 29 36 27 38 72 80 80 86 83 68 72 71 69 70 68 61 54
27 22 19 20 21 21 18 22 20 18 16 18 16 11 12 2 12 15 14 12 11 6 11 24 30 31 38 33 37 42 74 89 84 84 81 70 82 76 67 65 65 61 51
28 23 23 24 24 19 18 17 22 23 21 21 16 14 7 8 11 17 16 16 11 11 13 20 31 38 37 40 42 65 68 72 69 83 80 75 76 70 65 61 53 48 46
30 28 26 25 22 22 22 20 21 25 25 18 21 17 12 10 8 15 16 15 18 22 21 23 33 40 40 42 51 72 72 64 72 76 70 71 67 61 54 46 44 36 40
31 30 29 26 22 20 18 19 16 20 25 25 18 17 16 13 11 17 17 13 24 28 26 27 36 44 44 44 53 70 73 65 65 63 59 62 56 46 40 47 45 41 48
33 30 33 21 21 19 19 9 13 13 13 12 19 21 12 17 15 19 21 20 26 33 30 32 43 43 42 39 50 57 72 72 67 66 63 58 44 46 47 35 40 34 45
34 32 32 30 28 24 18 13 13 7 7 14 23 24 15 18 17 24 22 24 25 32 36 48 46 41 36 36 43 44 49 86 62 63 67 59 44 44 49 33 32 25 36
37 36 35 31 26 18 16 20 16 13 3 16 21 24 17 21 18 28 33 36 33 31 47 47 49 47 44 40 44 55 71 69 57 58 61 45 46 49 49 40 45 30 43
39 39 39 29 28 19 18 21 16 16 12 23 29 21 20 21 25 32 38 39 40 39 49 52 52 48 48 44 47 54 64 59 52 55 53 41 42 50 46 39 39 36 37
41 45 40 34 33 23 19 24 16 19 16 22 28 25 17 20 26 36 44 40 40 37 48 48 42 39 34 37 44 52 49 41 43 44 42 38 34 47 44 41 33 40 34
46 44 45 40 35 30 28 20 27 15 24 20 28 26 22 20 22 38 43 44 41 44 46 42 43 39 45 48 54 48 46 45 41 42 42 39 41 47 49 43 37 40 44
52 48 46 41 44 33 35 32 24 28 23 12 32 16 24 22 14 32 42 36 40 46 42 43 43 35 45 47 48 39 32 38 47 44 46 51 56 51 45 42 38 40 44
55 50 47 45 43 42 38 36 36 32 33 29 27 26 26 21 17 30 42 40 30 46 36 42 42 39 38 37 41 34 40 47 35 46 50 51 48 43 44 43 40 41 38
58 52 51 50 46 44 45 42 39 43 42 40 39 36 27 29 26 24 36 43 42 44 40 34 36 41 43 46 46 44 42 40 52 45 46 44 45 47 52 53 48 52 47
61 60 55 50 49 45 46 45 44 45 37 38 47 51 44 37 35 32 38 44 49 50 53 48 44 45 42 48 49 50 50 54 52 56 51 51 49 55 56 61 57 52 52
62 61 58 52 50 50 46 50 48 47 50 45 50 50 59 56 53 51 52 52 50 48 53 56 48 45 48 50 51 53 55 58 60 62 58 59 54 57 60 60 60 58 60
64 61 60 60 51 54 54 53 53 52 50 55 57 59 47 61 66 64 63 64 63 56 51 50 58 58 45 52 54 57 60 58 60 63 64 64 64 63 62 63 60 59 57
68 64 62 70 65 55 61 59 56 55 54 53 56 60 58 53 54 65 65 66 68 68 62 56 54 51 57 55 51 58 60 63 64 66 67 64 63 66 63 62 62 58 65
74 68 67 68 75 65 59 63 62 60 59 58 55 58 61 64 62 58 56 56 55 56 60 68 66 60 61 60 60 63 62 67 69 66 66 66 70 69 63 64 64 61 70
39 72 72 71 77 73 64 69 69 67 65 62 63 61 64 67 68 66 60 53 58 57 50 50 51 71 68 67 67 64 68 71 66 65 63 66 67 63 63 65 63 66 72
41 32 74 73 76 82 77 67 73 71 72 72 68 70 69 68 68 72 72 66 64 68 72 68 60 58 57 71 72 73 72 69 70 69 68 68 65 63 64 65 64 68 75
40 49 38 74 70 81 81 78 76 82 78 79 80 74 77 75 73 71 74 71 70 75 69 73 76 70 65 63 63 75 75 72 73 68 68 69 68 65 65 64 64 71 80
Wind_Direction_500mb
161 167 168 169 193 191 168 164 184 188 164 141 168 279 329 293 296 288 271 248 253 213 206 210 179 218 226 194 168 180 167 179 149 145 151 146 156 149 139 136 139 142 144
167 181 178 165 199 200 171 162 184 145 151 145 196 19 259 288 306 304 292 236 236 267 260 215 204 208 178 156 167 170 178 163 142 141 133 136 140 139 137 140 146 145 144
179 176 181 154 190 206 155 162 167 159 150 160 153 222 296 318 331 354 310 186 203 228 225 243 204 171 161 161 147 147 153 147 140 131 130 133 133 136 140 143 147 144 146
175 174 153 180 191 177 141 155 155 160 158 146 173 272 61 356 29 30 40 106 104 160 83 156 167 151 148 147 144 161 156 146 145 138 139 142 138 145 138 137 141 146 145
166 163 156 161 148 142 150 149 154 152 165 141 141 127 74 88 130 70 99 146 131 140 162 132 139 146 142 137 132 158 157 149 146 145 147 146 142 145 146 147 142 145 152
161 147 151 156 150 154 162 159 155 175 166 152 150 136 154 118 96 89 100 80 109 122 96 125 128 135 140 135 125 145 148 152 149 148 147 144 145 150 148 150 150 151 147
161 154 155 154 152 149 136 147 159 160 150 161 155 173 197 138 99 104 95 90 102 123 124 134 137 143 143 146 140 151 154 153 155 153 154 151 147 150 152 152 147 149 151
160 158 156 153 150 153 155 147 163 160 164 168 174 189 233 171 97 129 99 100 104 114 109 123 143 148 152 149 147 162 159 153 158 155 150 149 151 157 157 151 148 147 140
164 162 166 165 153 159 162 174 195 189 189 186 180 182 217 160 122 143 109 106 118 120 112 108 137 142 150 152 152 165 163 162 160 160 153 153 155 156 152 144 155 157 156
167 167 165 155 154 141 159 169 124 129 135 170 184 153 199 144 128 160 130 138 122 124 118 120 138 132 152 155 160 158 171 162 159 163 162 159 155 152 158 161 165 173 162
167 167 166 158 161 174 165 150 119 133 131 136 152 152 158 139 129 147 139 137 136 135 129 128 129 138 145 151 163 164 168 161 161 162 166 170 165 167 168 168 173 187 181
169 169 169 164 164 168 145 143 144 161 125 131 144 148 153 150 143 144 141 140 131 141 140 135 131 129 126 136 153 159 157 164 161 163 168 177 185 175 177 178 188 199 210
175 172 172 172 175 169 151 150 169 154 114 126 124 130 144 144 142 143 140 136 137 145 146 144 139 140 136 129 135 144 159 162 169 177 181 181 180 181 176 193 203 213 210
177 176 176 174 175 172 165 159 166 163 168 151 142 147 153 151 145 147 147 146 153 149 145 143 144 146 149 154 147 148 151 161 170 174 176 180 186 178 187 210 203 203 208
182 179 181 183 182 184 174 170 183 163 199 187 165 157 167 172 167 162 158 162 159 163 156 150 147 150 152 153 153 158 164 177 181 176 181 177 182 190 202 214 219 218 225
185 185 188 188 191 191 188 186 188 184 203 164 181 157 153 180 157 163 160 160 174 172 172 164 155 155 165 164 165 166 175 183 190 190 188 184 193 204 210 220 223 219 225
188 191 195 194 198 194 194 198 201 187 196 203 189 186 189 173 172 169 162 167 170 178 178 179 173 172 185 180 184 189 192 189 181 192 202 209 221 217 205 220 218 221 221
200 199 198 201 202 200 201 203 202 209 199 206 204 205 195 203 201 194 186 182 182 186 180 193 192 191 197 199 200 202 201 203 196 198 211 219 209 209 207 219 226 220 218
204 203 204 210 203 206 205 205 207 207 210 208 212 211 210 200 204 208 206 204 202 200 195 194 212 212 207 211 212 211 212 213 222 214 214 219 220 214 218 227 228 226 222
205 209 209 208 210 211 209 209 210 209 209 204 214 216 210 210 209 209 211 210 213 217 214 208 202 216 220 220 220 222 223 223 223 226 229 223 224 229 227 227 233 226 227
203 212 211 215 214 213 214 213 214 214 212 208 208 225 225 220 219 222 222 219 216 212 223 225 219 210 217 226 227 226 227 227 227 230 233 235 232 229 232 232 233 236 229
206 208 215 215 216 217 215 217 218 216 217 216 214 221 233 230 231 231 231 231 230 227 217 224 235 234 224 220 230 231 230 232 235 236 236 235 234 233 235 239 237 237 237
207 209 213 220 217 216 222 217 216 219 219 220 217 219 229 230 230 234 238 243 239 237 235 229 223 231 235 238 234 232 236 235 234 236 237 238 235 237 239 239 242 237 241
221 215 213 218 216 218 220 221 217 219 220 221 220 221 227 232 230 237 240 244 241 246 245 245 240 231 228 236 235 239 242 241 242 241 241 241 241 241 241 241 244 241 243
243 238 218 217 219 214 219 223 219 218 220 220 222 221 228 234 235 233 232 235 231 235 239 245 246 248 245 233 237 241 240 241 240 241 241 242 244 241 242 243 240 241 241
257 238 260 221 223 221 221 218 222 221 220 222 220 222 221 228 235 236 238 237 235 228 235 238 240 245 249 250 244 239 241 244 244 243 241 242 241 242 244 243 240 241 244
Wind_Speed_850mb
32 27 22 14 15 8 11 14 14 17 11 11 4 2 4 6 13 13 7 9 8 8 11 11 11 8 11 10 16 25 34 38 54 49 51 67 75 82 88 93 92 82 67
30 25 16 17 13 14 15 19 12 14 14 9 3 2 5 8 18 15 12 9 7 6 7 8 9 12 17 14 25 35 39 36 60 75 66 82 87 92 94 90 80 66 62
32 15 11 15 15 9 19 17 17 14 13 9 6 7 7 12 12 8 7 11 10 11 13 14 13 20 29 33 31 37 41 58 66 79 76 78 79 75 78 72 68 64 62
30 15 24 11 9 10 16 17 19 14 12 14 5 5 2 4 12 16 9 6 6 4 3 11 19 20 30 39 29 37 59 85 78 81 88 75 60 76 63 70 66 58 56
27 28 13 15 11 19 19 18 16 15 13 12 11 8 9 5 3 8 9 5 9 6 10 17 21 26 29 36 27 38 72 80 80 86 83 68 72 71 69 70 68 61 54
27 22 19 20 21 21 18 22 20 18 16 18 16 11 12 2 12 15 14 12 11 6 11 24 30 31 38 33 37 42 74 89 84 84 81 70 82 76 67 65 65 61 51
28 23 23 24 24 19 18 17 22 23 21 21 16 14 7 8 11 17 16 16 11 11 13 20 31 38 37 40 42 65 68 72 69 83 80 75 76 70 65 61 53 48 46
30 28 26 25 22 22 22 20 21 25 25 18 21 17 12 10 8 15 16 15 18 22 21 23 33 40 40 42 51 72 72 64 72 76 70 71 67 61 54 46 44 36 40
31 30 29 26 22 20 18 19 16 20 25 25 18 17 16 13 11 17 17 13 24 28 26 27 36 44 44 44 53 70 73 65 65 63 59 62 56 46 40 47 45 41 48
33 30 33 21 21 19 19 9 13 13 13 12 19 21 12 17 15 19 21 20 26 33 30 32 43 43 42 39 50 57 72 72 67 66 63 58 44 46 47 35 40 34 45
34 32 32 30 28 24 18 13 13 7 7 14 23 24 15 18 17 24 22 24 25 32 36 48 46 41 36 36 43 44 49 86 62 63 67 59 44 44 49 33 32 25 36
37 36 35 31 26 18 16 20 16 13 3 16 21 24 17 21 18 28 33 36 33 31 47 47 49 47 44 40 44 55 71 69 57 58 61 45 46 49 49 40 45 30 43
39 39 39 29 28 19 18 21 16 16 12 23 29 21 20 21 25 32 38 39 40 39 49 52 52 48 48 44 47 54 64 59 52 55 53 41 42 50 46 39 39 36 37
41 45 40 34 33 23 19 24 16 19 16 22 28 25 17 20 26 36 44 40 40 37 48 48 42 39 34 37 44 52 49 41 43 44 42 38 34 47 44 41 33 40 34
46 44 45 40 35 30 28 20 27 15 24 20 28 26 22 20 22 38 43 44 41 44 46 42 43 39 45 48 54 48 46 45 41 42 42 39 41 47 49 43 37 40 44
52 48 46 41 44 33 35 32 24 28 23 12 32 16 24 22 14 32 42 36 40 46 42 43 43 35 45 47 48 39 32 38 47 44 46 51 56 51 45 42 38 40 44
55 50 47 45 43 42 38 36 36 32 33 29 27 26 26 21 17 30 42 40 30 46 36 42 42 39 38 37 41 34 40 47 35 46 50 51 48 43 44 43 40 41 38
58 52 51 50 46 44 45 42 39 43 42 40 39 36 27 29 26 24 36 43 42 44 40 34 36 41 43 46 46 44 42 40 52 45 46 44 45 47 52 53 48 52 47
61 60 55 50 49 45 46 45 44 45 37 38 47 51 44 37 35 32 38 44 49 50 53 48 44 45 42 48 49 50 50 54 52 56 51 51 49 55 56 61 57 52 52
62 61 58 52 50 50 46 50 48 47 50 45 50 50 59 56 53 51 52 52 50 48 53 56 48 45 48 50 51 53 55 58 60 62 58 59 54 57 60 60 60 58 60
64 61 60 60 51 54 54 53 53 52 50 55 57 59 47 61 66 64 63 64 63 56 51 50 58 58 45 52 54 57 60 58 60 63 64 64 64 63 62 63 60 59 57
68 64 62 70 65 55 61 59 56 55 54 53 56 60 58 53 54 65 65 66 68 68 62 56 54 51 57 55 51 58 60 63 64 66 67 64 63 66 63 62 62 58 65
74 68 67 68 75 65 59 63 62 60 59 58 55 58 61 64 62 58 56 56 55 56 60 68 66 60 61 60 60 63 62 67 69 66 66 66 70 69 63 64 64 61 70
39 72 72 71 77 73 64 69 69 67 65 62 63 61 64 67 68 66 60 53 58 57 50 50 51 71 68 67 67 64 68 71 66 65 63 66 67 63 63 65 63 66 72
41 32 74 73 76 82 77 67 73 71 72 72 68 70 69 68 68 72 72 66 64 68 72 68 60 58 57 71 72 73 72 69 70 69 68 68 65 63 64 65 64 68 75
40 49 38 74 70 81 81 78 76 82 78 79 80 74 77 75 73 71 74 71 70 75 69 73 76 70 65 63 63 75 75 72 73 68 68 69 68 65 65 64 64 71 80
Wind_Direction_850mb
161 167 168 169 193 191 168 164 184 188 164 141 168 279 329 293 296 288 271 248 253 213 206 210 179 218 226 194 168 180 167 179 149 145 151 146 156 149 139 136 139 142 144
167 181 178 165 199 200 171 162 184 145 151 145 196 19 259 288 306 304 292 236 236 267 260 215 204 208 178 156 167 170 178 163 142 141 133 136 140 139 137 140 146 145 144
179 176 181 154 190 206 155 162 167 159 150 160 153 222 296 318 331 354 310 186 203 228 225 243 204 171 161 161 147 147 153 147 140 131 130 133 133 136 140 143 147 144 146
175 174 153 180 191 177 141 155 155 160 158 146 173 272 61 356 29 30 40 106 104 160 83 156 167 151 148 147 144 161 156 146 145 138 139 142 138 145 138 137 141 146 145
166 163 156 161 148 142 150 149 154 152 165 141 141 127 74 88 130 70 99 146 131 140 162 132 139 146 142 137 132 158 157 149 146 145 147 146 142 145 146 147 142 145 152
161 147 151 156 150 154 162 159 155 175 166 152 150 136 154 118 96 89 100 80 109 122 96 125 128 135 140 135 125 145 148 152 149 148 147 144 145 150 148 150 150 151 147
161 154 155 154 152 149 136 147 159 160 150 161 155 173 197 138 99 104 95 90 102 123 124 134 137 143 143 146 140 151 154 153 155 153 154 151 147 150 152 152 147 149 151
160 158 156 153 150 153 155 147 163 160 164 168 174 189 233 171 97 129 99 100 104 114 109 123 143 148 152 149 147 162 159 153 158 155 150 149 151 157 157 151 148 147 140
164 162 166 165 153 159 162 174 195 189 189 186 180 182 217 160 122 143 109 106 118 120 112 108 137 142 150 152 152 165 163 162 160 160 153 153 155 156 152 144 155 157 156
167 167 165 155 154 141 159 169 124 129 135 170 184 153 199 144 128 160 130 138 122 124 118 120 138 132 152 155 160 158 171 162 159 163 162 159 155 152 158 161 165 173 162
167 167 166 158 161 174 165 150 119 133 131 136 152 152 158 139 129 147 139 137 136 135 129 128 129 138 145 151 163 164 168 161 161 162 166 170 165 167 168 168 173 187 181
169 169 169 164 164 168 145 143 144 161 125 131 144 148 153 150 143 144 141 140 131 141 140 135 131 129 126 136 153 159 157 164 161 163 168 177 185 175 177 178 188 199 210
175 172 172 172 175 169 151 150 169 154 114 126 124 130 144 144 142 143 140 136 137 145 146 144 139 140 136 129 135 144 159 162 169 177 181 181 180 181 176 193 203 213 210
177 176 176 174 175 172 165 159 166 163 168 151 142 147 153 151 145 147 147 146 153 149 145 143 144 146 149 154 147 148 151 161 170 174 176 180 186 178 187 210 203 203 208
182 179 181 183 182 184 174 170 183 163 199 187 165 157 167 172 167 162 158 162 159 163 156 150 147 150 152 153 153 158 164 177 181 176 181 177 182 190 202 214 219 218 225
185 185 188 188 191 191 188 186 188 184 203 164 181 157 153 180 157 163 160 160 174 172 172 164 155 155 165 164 165 166 175 183 190 190 188 184 193 204 210 220 223 219 225
188 191 195 194 198 194 194 198 201 187 196 203 189 186 189 173 172 169 162 167 170 178 178 179 173 172 185 180 184 189 192 189 181 192 202 209 221 217 205 220 218 221 221
200 199 198 201 202 200 201 203 202 209 199 206 204 205 195 203 201 194 186 182 182 186 180 193 192 191 197 199 200 202 201 203 196 198 211 219 209 209 207 219 226 220 218
204 203 204 210 203 206 205 205 207 207 210 208 212 211 210 200 204 208 206 204 202 200 195 194 212 212 207 211 212 211 212 213 222 214 214 219 220 214 218 227 228 226 222
205 209 209 208 210 211 209 209 210 209 209 204 214 216 210 210 209 209 211 210 213 217 214 208 202 216 220 220 220 222 223 223 223 226 229 223 224 229 227 227 233 226 227
203 212 211 215 214 213 214 213 214 214 212 208 208 225 225 220 219 222 222 219 216 212 223 225 219 210 217 226 227 226 227 227 227 230 233 235 232 229 232 232 233 236 229
206 208 215 215 216 217 215 217 218 216 217 216 214 221 233 230 231 231 231 231 230 227 217 224 235 234 224 220 230 231 230 232 235 236 236 235 234 233 235 239 237 237 237
207 209 213 220 217 216 222 217 216 219 219 220 217 219 229 230 230 234 238 243 239 237 235 229 223 231 235 238 234 232 236 235 234 236 237 238 235 237 239 239 242 237 241
221 215 213 218 216 218 220 221 217 219 220 221 220 221 227 232 230 237 240 244 241 246 245 245 240 231 228 236 235 239 242 241 242 241 241 241 241 241 241 241 244 241 243
243 238 218 217 219 214 219 223 219 218 220 220 222 221 228 234 235 233 232 235 231 235 239 245 246 248 245 233 237 241 240 241 240 241 241 242 244 241 242 243 240 241 241
257 238 260 221 223 221 221 218 222 221 220 222 220 222 221 228 235 236 238 237 235 228 235 238 240 245 249 250 244 239 241 244 244 243 241 242 241 242 244 243 240 241 244